Flag for Belgium Weather past 2 weeks in Charleroi, Belgium

Now
43 °F

Sunny.


Feels Like: 35 °F
Forecast: 34 / 45 °F
Wind: 16 mph from Southwest

Location: Charleroi / Gosselies

Current Time: Mar 3, 2015 at 6:09:14 PM

Latest Report: Mar 3, 2015 at 5:20 PM


Visibility: 10 mi

Pressure: 30.04 "Hg

Humidity: 81%

Dew point: 37 °F

Location of CharleroiLocation

Historic Weather in Charleroi — Graph

°F

Charleroi temperature yesterday

Maximum temperature yesterday: 46 °F (at 12:20 AM)
Minimum temperature yesterday: 36 °F (at 1:20 PM)
Average temperature yesterday: 41 °F

Past Weeks' High & Low Weather Summary

 TemperatureHumidityPressure
High48 °F (Feb 23, 1:50 PM)100% (Feb 18, 12:20 AM)30.74 "Hg (Feb 18, 12:20 AM)
Low30 °F (Feb 18, 3:50 AM)50% (Feb 28, 1:50 PM)29.39 "Hg (Feb 23, 5:20 AM)
Average39 °F84%29.94 "Hg
* Reported Feb 16 4:20 PM — Mar 3 4:50 PM, Charleroi, Weather by CustomWeather, © 2015

Note: Actual official high and low records may vary slightly from our data, if they occured in-between our weather recording intervals... More about our weather records

Advertising

Charleroi weather history for previous 24 hours

 ConditionsComfort  
Time TempWeatherWind HumidityBarometerVisibility
4:50 PM
Tue, Mar 3
43 °FSunny.16 mph76%30.01 "Hg10 mi
4:20 PM41 °FPartly sunny.15 mph87%30.01 "HgN/A
3:50 PM39 °FSprinkles. Broken clouds.13 mph87%30.04 "HgN/A
3:20 PM45 °FPartly sunny.18 mph81%30.01 "HgN/A
2:50 PM43 °FPartly sunny.18 mph87%30.01 "HgN/A
2:20 PM43 °FSprinkles. Broken clouds.14 mph87%30.01 "Hg4 mi
1:50 PM43 °FSprinkles. Partly sunny.18 mph81%30.01 "Hg4 mi
1:20 PM43 °FSprinkles. Partly sunny.21 mph81%30.04 "Hg6 mi
12:50 PM45 °FSprinkles. Broken clouds.25 mph71%30.01 "HgN/A
12:20 PM46 °FBroken clouds.22 mph62%30.01 "HgN/A
11:50 AM46 °FPassing clouds.22 mph62%30.04 "HgN/A
11:20 AM45 °FSunny.18 mph61%30.04 "Hg10 mi
10:50 AM43 °FPassing clouds.17 mph66%30.04 "HgN/A
10:20 AM41 °FScattered clouds.16 mph70%30.07 "HgN/A
9:50 AM39 °FScattered clouds.15 mph75%30.07 "HgN/A
9:20 AM37 °FPassing clouds.16 mph81%30.07 "HgN/A
8:50 AM37 °FSunny.15 mph81%30.07 "Hg10 mi
8:20 AM37 °FSunny.12 mph81%30.07 "Hg10 mi
7:50 AM37 °FSunny.13 mph81%30.07 "Hg10 mi
7:20 AM37 °FClear.12 mph81%30.07 "Hg10 mi
6:50 AM36 °FClear.10 mph87%30.07 "Hg10 mi
6:20 AM36 °FPassing clouds.9 mph87%30.07 "HgN/A
5:50 AM36 °FPassing clouds.9 mph87%30.09 "HgN/A
5:20 AM36 °FPassing clouds.10 mph87%30.07 "HgN/A
4:50 AM36 °FPassing clouds.12 mph87%30.07 "HgN/A
4:20 AM36 °FPassing clouds.14 mph87%30.09 "HgN/A
3:50 AM36 °FPassing clouds.14 mph87%30.09 "HgN/A
3:20 AM36 °FPassing clouds.13 mph87%30.07 "HgN/A
2:50 AM36 °FPassing clouds.13 mph87%30.09 "HgN/A
2:20 AM36 °FPassing clouds.13 mph87%30.09 "HgN/A
1:50 AM36 °FPassing clouds.13 mph87%30.07 "HgN/A
1:20 AM36 °FPassing clouds.15 mph87%30.07 "HgN/A
12:50 AM37 °FPassing clouds.15 mph75%30.07 "HgN/A
12:20 AM37 °FPassing clouds.14 mph75%30.07 "HgN/A
11:50 PM
Mon, Mar 2
37 °FPassing clouds.14 mph75%30.04 "HgN/A
11:20 PM37 °FPassing clouds.14 mph81%30.04 "HgN/A
10:50 PM37 °FPassing clouds.15 mph81%30.04 "HgN/A
10:20 PM37 °FPassing clouds.13 mph75%30.01 "HgN/A
9:50 PM37 °FClear.14 mph75%30.01 "Hg10 mi
9:20 PM37 °FClear.14 mph75%30.01 "Hg10 mi
8:50 PM39 °FClear.15 mph70%29.98 "Hg10 mi
8:20 PM39 °FClear.16 mph70%29.98 "Hg10 mi
7:50 PM39 °FPassing clouds.16 mph70%29.95 "HgN/A
7:20 PM39 °FPassing clouds.13 mph70%29.95 "HgN/A
6:50 PM41 °FPassing clouds.13 mph61%29.92 "HgN/A
6:20 PM41 °FPassing clouds.15 mph61%29.89 "HgN/A
Weather by CustomWeather, © 2015

See weather overviewHow to use our weather pages